Content
SEND FEEDBACK

Daily
Averages
Monthly
Summary
United States of America

WINSTED, MINNESOTA


Home > North America > United States > Minnesota
Elevation: 1004 feet     Latitude: 44 58N     Longitude: 094 03W

WEATHER
 
SELECT A DAY
Number of Records: 393,894;   Date Range: 10/9/98 - 8/30/14
 
SHARE

PRINT THIS DATA

[ ← Previous Day ]
WEATHER ALMANAC - FEBRUARY 13, 2013
[ Next Day → ]
[ °C ]   °F
Weather ElementAverageHighLow
Temperature27 °F35.8 °F (3:56 pm)13.5 °F (2:56 am)
Dewpoint23.5 °F32 °F (7:56 pm)11.7 °F (2:56 am)
Humidity87.3 %99 % (8:36 pm)73 % (1:36 pm)
Barometer29.66 in29.79 in (12:36 am)29.55 in (8:16 pm)
Wind Speed4.7 mph10.4 mph (11:36 pm)
Weather ElementAverage
Visibility8.9 mi
Wind DirectionS (182.7 °)

Weather ElementTotal
Precipitation0.01 in
Heating Degree Days40.4 (Base 65)
Averaged from 71 records on February 13, 2013
WEATHER CONDITIONS BREAKOUT
WIND DIRECTION BREAKOUT
WEATHER BY HOUR - FEBRUARY 13, 2013
[ °C ]   °F
Local TimeTemperatureDewpointHumidityBarometerVisibilityWind DirectionWind SpeedGust SpeedPrecipitationEventsConditions
12:36 AM18.3 °F15.4 °F89 %29.79 in10.0 miWSW (250°)3.5 mphScattered Clouds
12:56 AM17.1 °F14.5 °F90 %29.79 in10.0 miWest (260°)3.5 mphMostly Cloudy
1:16 AM14.9 °F12.2 °F89 %29.78 in10.0 miSW (230°)3.5 mphOvercast
1:36 AM16.5 °F14.0 °F90 %29.78 in10.0 miCalmOvercast
1:56 AM16.7 °F14.2 °F90 %29.78 in10.0 miWSW (240°)3.5 mphOvercast
2:16 AM16.3 °F14.0 °F90 %29.77 in10.0 miWSW (250°)4.6 mphScattered Clouds
2:36 AM14.5 °F12.0 °F90 %29.78 in10.0 miCalmClear
2:56 AM13.5 °F11.7 °F93 %29.77 in10.0 miCalmClear
3:16 AM14.5 °F12.7 °F93 %29.77 in10.0 miCalmClear
3:36 AM15.4 °F13.5 °F92 %29.77 in10.0 miSW (230°)3.5 mphClear
3:56 AM15.3 °F13.3 °F92 %29.76 in10.0 miWSW (240°)3.5 mphClear
4:16 AM15.4 °F13.3 °F91 %29.76 in10.0 miCalmClear
4:36 AM15.8 °F13.8 °F92 %29.76 in10.0 miWest (260°)5.8 mphMostly Cloudy
4:56 AM16.7 °F14.4 °F91 %29.76 in10.0 miWSW (240°)4.6 mphOvercast
5:16 AM17.6 °F15.3 °F91 %29.75 in10.0 miSW (230°)3.5 mphOvercast
5:36 AM17.6 °F15.3 °F91 %29.75 in10.0 miSW (230°)3.5 mphOvercast
5:56 AM18.1 °F15.6 °F90 %29.74 in10.0 miSW (230°)3.5 mphOvercast
6:16 AM18.1 °F15.6 °F90 %29.72 in10.0 miSSW (200°)3.5 mphOvercast
6:36 AM18.9 °F16.3 °F90 %29.72 in10.0 miCalmOvercast
6:55 AM19.2 °F16.5 °F89 %29.72 in10.0 miSSW (200°)3.5 mphOvercast
7:16 AM19.4 °F16.7 °F89 %29.72 in10.0 miCalmOvercast
7:36 AM19.4 °F17.1 °F91 %29.72 in10.0 miSouth (190°)5.8 mphOvercast
7:56 AM19.4 °F16.7 °F89 %29.72 in10.0 miSouth (180°)3.5 mphOvercast
8:16 AM19.4 °F16.7 °F89 %29.72 in10.0 miSouth (180°)4.6 mphOvercast
8:36 AM20.3 °F17.6 °F89 %29.72 in10.0 miSouth (190°)6.9 mphOvercast
8:56 AM20.3 °F17.6 °F89 %29.71 in10.0 miSSW (200°)8.1 mphMostly Cloudy
9:16 AM22.3 °F18.7 °F86 %29.71 in10.0 miSSW (200°)5.8 mphClear
9:36 AM23.7 °F19.6 °F84 %29.70 in10.0 miSSW (200°)6.9 mphClear
9:56 AM25.3 °F20.8 °F83 %29.70 in10.0 miSSW (200°)6.9 mphClear
10:16 AM27.0 °F21.7 °F81 %29.70 in10.0 miSSW (210°)5.8 mphClear
10:36 AM28.9 °F22.8 °F78 %29.70 in7.0 miSW (220°)4.6 mphScattered Clouds
10:56 AM29.3 °F23.0 °F77 %29.70 in10.0 miSW (230°)3.5 mphOvercast
11:16 AM30.6 °F24.3 °F77 %29.69 in10.0 miCalmOvercast
11:36 AM31.3 °F23.9 °F74 %29.69 in10.0 miWSW (240°)4.6 mphScattered Clouds
11:56 AM32.0 °F24.8 °F75 %29.68 in10.0 miSouth (190°)5.8 mphScattered Clouds
12:16 PM32.0 °F25.9 °F78 %29.66 in10.0 miSouth (190°)6.9 mphScattered Clouds
12:36 PM32.5 °F26.2 °F78 %29.65 in10.0 miSSW (200°)5.8 mphScattered Clouds
12:56 PM33.1 °F26.6 °F77 %29.65 in10.0 miSSW (200°)6.9 mphScattered Clouds
1:16 PM34.0 °F27.0 °F75 %29.65 in10.0 miSSW (200°)8.1 mphMostly Cloudy
1:36 PM34.7 °F26.8 °F73 %29.64 in10.0 miSSW (200°)8.1 mphScattered Clouds
1:56 PM34.7 °F27.3 °F74 %29.63 in10.0 miSSW (200°)6.9 mphScattered Clouds
2:16 PM34.9 °F27.9 °F76 %29.62 in10.0 miSSW (200°)8.1 mphClear
2:36 PM34.9 °F28.2 °F77 %29.62 in10.0 miSouth (190°)6.9 mphMostly Cloudy
2:56 PM35.6 °F28.2 °F75 %29.62 in10.0 miSSW (200°)6.9 mphOvercast
3:16 PM35.6 °F28.9 °F77 %29.62 in10.0 miSouth (190°)8.1 mphMostly Cloudy
3:36 PM35.6 °F29.3 °F78 %29.61 in10.0 miSouth (190°)6.9 mphMostly Cloudy
3:56 PM35.8 °F29.1 °F77 %29.61 in10.0 miSSW (210°)4.6 mphOvercast
4:16 PM35.1 °F30.0 °F82 %29.61 in10.0 miSouth (190°)5.8 mphOvercast
4:36 PM35.6 °F29.8 °F80 %29.60 in10.0 miSouth (170°)3.5 mphOvercast
4:56 PM35.6 °F30.0 °F80 %29.59 in10.0 miSouth (170°)4.6 mphLight Drizzle
5:16 PM35.6 °F30.2 °F81 %29.59 in10.0 miSSW (200°)4.6 mphRainLight Rain
5:36 PM34.7 °F30.9 °F86 %29.59 in7.0 miSouth (190°)4.6 mphRainLight Rain
5:56 PM34.7 °F31.1 °F87 %29.58 in10.0 miSouth (170°)3.5 mphRainLight Rain
6:16 PM34.2 °F31.1 °F89 %29.59 in10.0 miSouth (190°)4.6 mphRainLight Rain
6:36 PM34.0 °F31.1 °F89 %29.58 in10.0 miCalmLight Drizzle
6:56 PM33.4 °F31.3 °F92 %29.58 in3.0 miSSW (200°)5.8 mphRainLight Rain
7:16 PM32.7 °F31.8 °F96 %29.57 in1.8 miSSW (210°)3.5 mphSnowLight Snow
7:36 PM32.4 °F31.8 °F98 %29.57 in2.5 miCalmSnowLight Snow
7:56 PM32.5 °F32.0 °F98 %29.56 in2.0 miCalm0.01 inSnowLight Snow
8:16 PM32.5 °F32.0 °F98 %29.55 in4.0 miSW (230°)3.5 mphSnowLight Snow
8:36 PM32.4 °F32.0 °F99 %29.55 in2.5 miSW (230°)3.5 mphSnowLight Snow
8:56 PM32.5 °F32.0 °F98 %29.55 in5.0 miCalmSnowLight Snow
9:16 PM32.9 °F32.0 °F96 %29.55 in7.0 miWSW (250°)3.5 mphOvercast
9:36 PM32.9 °F32.0 °F96 %29.55 in10.0 miWest (260°)6.9 mphOvercast
9:56 PM33.1 °F32.0 °F96 %29.55 in10.0 miWest (260°)6.9 mphOvercast
10:16 PM32.9 °F32.0 °F96 %29.55 in10.0 miWest (280°)8.1 mphOvercast
10:36 PM33.1 °F32.0 °F96 %29.55 in10.0 miWest (280°)9.2 mphOvercast
10:56 PM33.1 °F32.0 °F96 %29.55 in7.0 miWNW (290°)9.2 mphLight Drizzle
11:16 PM32.9 °F32.0 °F96 %29.55 in5.0 miWNW (290°)9.2 mphRainLight Rain
11:36 PM32.9 °F31.8 °F96 %29.56 in3.0 miWNW (300°)10.4 mphSnowLight Snow
11:56 PM32.4 °F31.6 °F97 %29.57 in2.0 miNW (320°)9.2 mphSnowLight Snow
Hourly data recorded from KGYL, located miles away from Winsted, Minnesota







STORIES FROM OUR PARTNERS